Flag for Israel Weather past 2 weeks in Kfar Saba, Israel

Now
64 °F

Clear.


Feels Like: 64 °F
Forecast: 64 / 83 °F
Wind: 1 mph from North

Location: Ben Gurion International Airport

Current Time: Oct 25, 2014 at 2:20:54 AM

Latest Report: Oct 25, 2014 at 1:50 AM


Visibility: 10 mi

Pressure: 30.01 "Hg

Humidity: 64%

Dew point: 52 °F

Location of Kfar SabaLocation

Historic Weather in Kfar Saba — Graph

°F

Kfar Saba temperature yesterday

Maximum temperature yesterday: 84 °F (at 11:50 AM)
Minimum temperature yesterday: 61 °F (at 6:20 AM)
Average temperature yesterday: 72 °F

Past Weeks' High & Low Weather Summary

 TemperatureHumidityPressure
High88 °F (Oct 10, 12:20 PM)89% (Oct 10, 11:20 PM)30.12 "Hg (Oct 10, 11:20 PM)
Low59 °F (Oct 22, 4:50 AM)27% (Oct 24, 11:50 AM)29.74 "Hg (Oct 19, 1:50 PM)
Average73 °F66%29.97 "Hg
* Reported Oct 10 1:20 AM — Oct 25 1:20 AM, Kfar Saba, Weather by CustomWeather, © 2014

Note: Actual official high and low records may vary slightly from our data, if they occured in-between our weather recording intervals... More about our weather records

Advertising

Kfar Saba weather history for previous 24 hours

 ConditionsComfort  
Time TempWeatherWind HumidityBarometerVisibility
1:20 AM
Oct 25
64 °FClear.2 mph64%30.01 "Hg10 mi
12:50 AM68 °FClear.3 mph56%30.04 "Hg10 mi
12:20 AM68 °FClear.5 mph60%30.04 "Hg10 mi
11:50 PM
Oct 24
68 °FClear.3 mph60%30.04 "Hg10 mi
11:20 PM66 °FClear.3 mph64%30.04 "Hg10 mi
10:50 PM68 °FClear.3 mph56%30.04 "Hg10 mi
10:20 PM70 °FClear.3 mph53%30.04 "Hg10 mi
9:50 PM70 °FClear.5 mph57%30.04 "Hg10 mi
9:20 PM70 °FClear.5 mph53%30.04 "Hg10 mi
8:50 PM72 °FClear.6 mph53%30.04 "Hg10 mi
8:20 PM73 °FClear.2 mph53%30.04 "Hg10 mi
7:50 PM75 °FClear.3 mph50%30.04 "Hg10 mi
7:20 PM75 °FClear.3 mph50%30.01 "Hg10 mi
6:50 PM75 °FClear.6 mph50%30.01 "Hg10 mi
6:20 PM77 °FClear.5 mph47%30.01 "Hg10 mi
5:50 PM79 °FSunny.8 mph45%30.01 "Hg10 mi
5:20 PM79 °FSunny.10 mph45%30.01 "Hg10 mi
4:50 PM81 °FSunny.13 mph42%30.01 "Hg10 mi
4:20 PM81 °FSunny.14 mph39%30.01 "Hg10 mi
3:50 PM82 °FSunny.14 mph35%30.01 "Hg10 mi
3:20 PM82 °FSunny.13 mph35%30.01 "Hg10 mi
2:50 PM82 °FSunny.13 mph37%30.01 "Hg10 mi
2:20 PM82 °FSunny.13 mph35%30.01 "Hg10 mi
1:50 PM82 °FSunny.13 mph35%30.01 "Hg10 mi
1:20 PM82 °FSunny.9 mph35%30.01 "Hg10 mi
12:50 PM84 °FSunny.7 mph31%30.01 "Hg10 mi
12:20 PM84 °FSunny.3 mph29%30.04 "Hg10 mi
11:50 AM84 °FSunny.3 mph27%30.04 "Hg10 mi
11:20 AM82 °FSunny.2 mph28%30.04 "Hg10 mi
10:50 AM82 °FSunny.2 mph30%30.04 "Hg10 mi
10:20 AM81 °FSunny.1 mph37%30.04 "Hg10 mi
9:50 AM79 °FSunny.1 mph39%30.04 "Hg10 mi
9:20 AM73 °FSunny.1 mph50%30.04 "Hg10 mi
8:50 AM72 °FSunny.1 mph50%30.04 "Hg10 mi
8:20 AM66 °FSunny.2 mph60%30.04 "Hg10 mi
7:50 AM63 °FSunny.3 mph64%30.01 "Hg10 mi
7:20 AM61 °FSunny.3 mph68%30.01 "Hg10 mi
6:50 AM61 °FSunny.1 mph72%30.01 "Hg10 mi
6:20 AM61 °FClear.3 mph72%30.01 "Hg10 mi
5:50 AM63 °FClear.2 mph73%30.01 "Hg10 mi
5:20 AM63 °FClear.5 mph77%30.01 "Hg10 mi
4:50 AM63 °FClear.3 mph77%30.01 "Hg10 mi
4:20 AM63 °FClear.3 mph83%30.01 "Hg10 mi
3:50 AM64 °FClear.2 mph78%30.01 "Hg10 mi
3:20 AM64 °FClear.5 mph78%30.01 "Hg10 mi
2:50 AM64 °FClear.3 mph78%30.01 "Hg10 mi
2:20 AM64 °FClear.3 mph78%30.01 "Hg10 mi
Weather by CustomWeather, © 2014

See weather overviewHow to use our weather pages